sat.trackr.live / text

‹ back to catalog

KUIPER-00154

NORAD 65969 · 2025-228Y

PAYLOAD ACTIVE UNKNOWN

§ Identity

Operator
Country
US
Launch date
2025-10-14
Launch site
AFETR
Launch vehicle
Mass (kg)
RCS (m²)

External: N2YO · Heavens-Above · Gunter

§ Orbital elements

Epoch: 2026-09-20T17:57:50.086368Z

Period
97.30 min
Inclination
51.8994°
Eccentricity
0.0000974
Mean motion
14.79929352 rev/d
Perigee alt
628.9 km
Apogee alt
630.2 km
Semi-major
7,007.7 km
B*
3.0398e-4
RAAN
193.0514°
Arg perigee
84.6299°
Mean anomaly
275.4774°
Rev number
5,246

§ Raw data

KUIPER-001541 65969U 25228Y   26263.74849637  .00002097  00000+0  30398-3 0  99942 65969  51.8994 193.0514 0000974  84.6299 275.4774 14.79929352 52468

JSON: /api/v1/satellites/65969 · /tle

For live sub-satellite position, see the globe view (requires WebGL).

§ Visibility from observer

Set your observer location to see the next 7 days of passes ≥ 10°. The values pass through the URL so the page stays shareable.

No JS? Fill the form by hand. The geolocation button needs JavaScript.